Regional Weather Roundup
Issued by NWS Columbia, SC

Home | Current Version | Previous Version | Text Only | Print | Product List | Glossary On
Versions: 1 2 3 4 5 6 7 8 9 10 11 12 13 14 15 16 17 18 19 20 21 22 23 24 25 26 27 28 29 30 31 32 33 34 35 36 37 38 39 40 41 42 43 44 45 46 47 48 49 50
000
ASUS42 KCAE 191710
RWRCAE
REGIONAL WEATHER ROUNDUP
NATIONAL WEATHER SERVICE COLUMBIA SC
1200 PM EST FRI DEC 19 2014

NOTE: "FAIR" INDICATES FEW OR NO CLOUDS BELOW 12,000 FEET WITH NO
SIGNIFICANT WEATHER AND/OR OBSTRUCTIONS TO VISIBILITY.

NOT ALL STATIONS ARE QUALITY CONTROLLED BY THE NATIONAL
WEATHER SERVICE. USE DATA WITH CAUTION...ESPECIALLY
DEWPOINT OBSERVATIONS.

SCZ001>056-GAZ040-063>065-077-191800-
...UPSTATE SOUTH CAROLINA...

CITY           SKY/WX    TMP DP  RH WIND       PRES   REMARKS
ANDERSON       SUNNY     54  32  43 NE8       30.14F
LIBERTY        FAIR      53  31  42 MISG      30.13F
SPARTANBURG    FAIR      54  30  40 CALM      30.15F
CLEMSON        SUNNY     54  31  41 CALM      30.15F
GREENVILLE     SUNNY     53  31  42 E7        30.15F
GREENWOOD      SUNNY     55  28  35 VRB5      30.16F
GREER          SUNNY     54  32  43 VRB3      30.13F
ROCK HILL      SUNNY     54  26  34 N3        30.15F
CHESTER        FAIR      55  23  28 E7        30.16F
LAURENS        FAIR      52  36  54 E6        30.15F


...CENTRAL SOUTH CAROLINA...

CITY           SKY/WX    TMP DP  RH WIND       PRES   REMARKS
COLUMBIA APT   MOSUNNY   57  36  45 NE6       30.14F
COLUMBIA OWENS SUNNY     58  36  43 CALM      30.15F
DARLINGTON     SUNNY     55  25  30 E7        30.17F
FLORENCE       SUNNY     56  27  32 E8        30.15F
ORANGEBURG     SUNNY     56  40  55 E8        30.14F
SUMTER SHAW    SUNNY     56  32  40 E8        30.13F
NEWBERRY       FAIR      52  32  46 NE5       30.18F
AIKEN          FAIR      55  39  54 NE3       30.16F
BARNWELL       FAIR      57  39  51 CALM      30.13F
CAMDEN         FAIR      54  28  37 NE6       30.15F
LANCASTER      FAIR      55  25  30 N5        30.16F
WINNSBORO      FAIR      54  32  43 NE6       30.15F


...EASTERN AND COASTAL SOUTH CAROLINA...

CITY           SKY/WX    TMP DP  RH WIND       PRES   REMARKS
MYRTLE BEACH   SUNNY     55  34  44 VRB8      30.15F
N MYRTLE BCH   SUNNY     57  31  37 NE6       30.13F
CONWAY         FAIR      55  32  41 NE6       30.14F
MARION         FAIR      55  27  33 CALM      30.15F
HARTSVILLE     FAIR      57  19  23 E7        30.16S
FLORENCE       SUNNY     56  27  32 E8        30.15F
DARLINGTON     SUNNY     55  25  30 E7        30.17F
CHARLESTON APT PTSUNNY   58  45  62 E5        30.13F
MOUNT PLEASANT LGT RAIN  57  46  67 CALM      30.13F
WALTERBORO     MOSUNNY   55  37  50 CALM      30.14F
BEAUFORT       CLOUDY    57  43  59 VRB3      30.13F


...EASTERN GEORGIA...

CITY           SKY/WX    TMP DP  RH WIND       PRES   REMARKS
AUGUSTA BUSH F SUNNY     57  36  45 CALM      30.14F
AUGUSTA DANIEL SUNNY     58  36  43 N6        30.14F
THOMSON        SUNNY     58  42  54 N6        30.19F
WASHINGTON     FAIR      59  43  55 NE6       30.14F
CLAXTON        FAIR      55  43  62 CALM      30.15F
SYLVANIA       PTSUNNY   54  43  65 CALM      30.15F
STATESBORO     CLOUDY    55  41  60 CALM      30.14F
SAVANNAH       CLOUDY    59  40  49 N3        30.14F


...SOUTHERN NORTH CAROLINA...

CITY           SKY/WX    TMP DP  RH WIND       PRES   REMARKS
CHARLOTTE      MOSUNNY   52  23  32 VRB3      30.15F
MONROE         SUNNY     53  24  32 VRB5      30.14F
WADESBORO      SUNNY     53  26  36 CALM      30.15F
ROCKINGHAM     SUNNY     52  26  36 NE6       30.15F
RUTHERFORDTON  SUNNY     51  31  47 S6        30.14F
ASHEVILLE      SUNNY     48  29  47 N7        30.13F

$$


USA.gov is the U.S. government's official web portal to all federal, state and local government web resources and services.